Location: *
(43.6428°N, 11.5461°E)
Time: 20:48:11
(UTC+00:00)

Cosmos 1953 Rocket - Pass Details

Date: 21 October 2019
Orbit: 603 x 636 km, 82.5° (Epoch: 10 November)

Event Time Altitude Azimuth Distance (km) Brightness Sun altitude
Rises 16:57:46 0° 348° (NNW) 2,888 7.1 -7.3°
Reaches altitude 10° 17:00:00 10° 346° (NNW) 1,974 6.2 -7.7°
Maximum altitude 17:04:19 64° 265° (W) 674 4.1 -8.5°
Drops below altitude 10° 17:08:35 10° 184° (S) 1,945 6.2 -9.2°
Sets 17:10:47 0° 181° (S) 2,842 7.1 -9.6°
